User: anonymous   Login
Location: Unspecified
(0.0000°N, 0.0000°E)
Time: 07:45:29
(UTC+01:00)
Language:

Cosmos 1315 Rocket - Orbit

View from above orbital plane
View from above orbital plane
View from above satellite
View from above satellite

Ground track
Ground track

The orbit data is extracted from the following two-line orbital elements,

1 12904U 81103B   16043.53528687  .00001754  00000-0  12189-3 0  9998
2 12904  81.1776 115.7364 0027689 237.9398 121.9135 15.04748852419020
Epoch (UTC): 12 February 2016 12:50:48
Eccentricity: 0.0027689
inclination: 81.1776°
perigee height: 533 km
apogee height: 571 km
right ascension of ascending node: 115.7364°
argument of perigee: 237.9398°
revolutions per day: 15.04748852
mean anomaly at epoch: 121.9135°
orbit number at epoch: 41902

The dashed part of the orbit path shows where the satellite is in the earth's shadow,  

DLR